Date String (YYYY-MM-DD hh:mm:ss) UTC,Instrument flags,absolute air pressure of the measurement (hPa),sample flow rate (lpm),inlet stack bypass flow (lpm),air temperature of the measurement (°C),ambient temperature measured by the external sensor (°C),aerosol sample conditioner tube jacket temperature (°C),OPC LED temperature (°C),internal box temperature (°C),relative humidity of the measurement (%),span deviation,mass concentration of particles derived from Lorenz-Mie calculation of OPC scattering (μg/m³),mass concentration of particles derived from Lorenz-Mie calculation of OPC scattering (μg/m³),mass concentration of particles derived from Lorenz-Mie calculation of OPC scattering (μg/m³)
DateTimeUTC,F1_M11,P_M11,Q1_M11,Q2_M11,T1_M11,T2_M11,T3_M11,T4_M11,T5_M11,U1_M11,ZSPAN_M11,X0_M11,X2_M11,X1_M11
2023-10-13 18:00:00,SystemResetWarning,0832.7,5.00,000.00,026.0,024.8,000.0,034.3,027.8,13.1,0000.0,0006.04,0002.18,0001.95
2023-10-13 18:01:00,SystemResetWarning,0832.8,5.00,000.00,026.0,024.8,000.0,034.3,027.7,13.1,0000.0,0005.20,0002.26,0001.99
2023-10-13 18:02:00,SystemResetWarning,0832.7,5.01,000.00,026.0,024.8,000.0,034.3,027.7,13.1,0000.0,0004.17,0002.28,0002.01
2023-10-13 18:03:00,SystemResetWarning,0832.7,5.00,000.00,026.0,024.8,000.0,034.4,027.8,13.0,0000.0,0004.97,0002.29,0002.01
2023-10-13 18:04:00,SystemResetWarning,0832.8,5.01,000.00,026.1,024.8,000.0,034.4,027.8,13.1,0000.0,0005.75,0002.29,0002.02
2023-10-13 18:05:00,SystemResetWarning,0832.9,5.01,000.00,026.1,024.9,000.0,034.4,027.8,13.1,0000.0,0006.08,0002.27,0002.01
2023-10-13 18:06:00,SystemResetWarning,0832.8,5.00,000.00,026.1,024.9,000.0,034.4,027.8,13.1,0000.0,0006.15,0002.29,0002.02
2023-10-13 18:07:00,SystemResetWarning,0832.7,4.99,000.00,026.1,024.9,000.0,034.4,027.8,13.1,0000.0,0006.13,0002.28,0002.02
2023-10-13 18:08:00,SystemResetWarning,0832.8,5.00,000.00,026.1,024.9,000.0,034.5,027.8,13.2,0000.0,0006.11,0002.27,0002.01
2023-10-13 18:09:00,SystemResetWarning,0832.7,5.00,000.00,026.1,025.0,000.0,034.5,027.8,13.1,0000.0,0006.06,0002.26,0002.01
2023-10-13 18:10:00,SystemResetWarning,0832.7,5.00,000.00,026.2,025.0,000.0,034.5,027.9,13.2,0000.0,0005.89,0002.26,0002.01
2023-10-13 18:11:00,SystemResetWarning,0832.7,5.00,000.00,026.2,025.0,000.0,034.5,027.9,13.2,0000.0,0005.81,0002.28,0002.03
2023-10-13 18:12:00,SystemResetWarning,0832.7,5.01,000.00,026.2,025.1,000.0,034.5,027.9,13.0,0000.0,0005.61,0002.27,0002.06
2023-10-13 18:13:00,SystemResetWarning,0832.7,5.00,000.00,026.2,025.1,000.0,034.5,027.9,12.9,0000.0,0005.04,0002.27,0002.08
2023-10-13 18:14:00,SystemResetWarning,0832.6,5.01,000.00,026.2,025.1,000.0,034.5,028.0,12.9,0000.0,0004.47,0002.26,0002.07
2023-10-13 18:15:00,SystemResetWarning,0832.6,5.00,000.00,026.2,025.1,000.0,034.6,028.0,13.0,0000.0,0003.77,0002.26,0002.07
2023-10-13 18:16:00,SystemResetWarning,0832.6,5.00,000.00,026.3,025.1,000.0,034.6,028.0,13.2,0000.0,0003.03,0002.28,0002.08
2023-10-13 18:17:00,SystemResetWarning,0832.6,5.00,000.00,026.3,025.1,000.0,034.6,028.0,13.2,0000.0,0003.09,0002.31,0002.09
2023-10-13 18:18:00,SystemResetWarning,0832.6,5.00,000.00,026.3,025.2,000.0,034.6,028.0,13.2,0000.0,0003.12,0002.33,0002.09
2023-10-13 18:19:00,SystemResetWarning,0832.6,5.00,000.00,026.3,025.2,000.0,034.6,028.1,13.0,0000.0,0003.08,0002.33,0002.10
2023-10-13 18:20:00,SystemResetWarning,0832.6,5.00,000.00,026.3,025.2,000.0,034.6,028.1,12.8,0000.0,0003.06,0002.33,0002.11
2023-10-13 18:21:00,SystemResetWarning,0832.6,4.99,000.00,026.3,025.2,000.0,034.6,028.1,12.8,0000.0,0003.09,0002.34,0002.11
2023-10-13 18:22:00,SystemResetWarning,0832.7,5.00,000.00,026.4,025.2,000.0,034.7,028.1,12.9,0000.0,0003.48,0002.34,0002.10
2023-10-13 18:23:00,SystemResetWarning,0832.6,5.00,000.00,026.4,025.2,000.0,034.7,028.1,12.9,0000.0,0004.09,0002.33,0002.09
2023-10-13 18:24:00,SystemResetWarning,0832.7,5.00,000.00,026.4,025.2,000.0,034.7,028.1,12.8,0000.0,0004.13,0002.35,0002.09
2023-10-13 18:25:00,SystemResetWarning,0832.6,5.00,000.00,026.4,025.3,000.0,034.7,028.2,12.8,0000.0,0004.74,0002.39,0002.12
2023-10-13 18:26:00,SystemResetWarning,0832.6,5.00,000.00,026.4,025.3,000.0,034.7,028.2,12.8,0000.0,0004.97,0002.44,0002.14
2023-10-13 18:27:00,SystemResetWarning,0832.6,5.00,000.00,026.4,025.3,000.0,034.7,028.2,12.6,0000.0,0006.06,0002.57,0002.14
2023-10-13 18:28:00,SystemResetWarning,0832.7,5.00,000.00,026.4,025.3,000.0,034.7,028.2,12.4,0000.0,0006.22,0002.61,0002.15
2023-10-13 18:29:00,SystemResetWarning,0832.7,5.00,000.00,026.5,025.3,000.0,034.8,028.2,12.3,0000.0,0006.20,0002.60,0002.16
2023-10-13 18:30:00,SystemResetWarning,0832.6,5.00,000.00,026.5,025.3,000.0,034.8,028.2,12.2,0000.0,0006.19,0002.60,0002.17
2023-10-13 18:31:00,SystemResetWarning,0832.6,5.00,000.00,026.5,025.4,000.0,034.8,028.2,12.2,0000.0,0006.25,0002.64,0002.19
2023-10-13 18:32:00,SystemResetWarning,0832.5,5.00,000.00,026.5,025.4,000.0,034.8,028.2,12.4,0000.0,0006.28,0002.68,0002.22
2023-10-13 18:33:00,SystemResetWarning,0832.5,5.00,000.00,026.5,025.4,000.0,034.8,028.3,12.3,0000.0,0006.26,0002.68,0002.23
2023-10-13 18:34:00,SystemResetWarning,0832.5,5.00,000.00,026.5,025.4,000.0,034.9,028.3,11.9,0000.0,0005.28,0002.68,0002.24
2023-10-13 18:35:00,SystemResetWarning,0832.6,5.00,000.00,026.6,025.4,000.0,034.9,028.3,12.0,0000.0,0005.32,0002.72,0002.26
2023-10-13 18:36:00,SystemResetWarning,0832.6,5.00,000.00,026.6,025.5,000.0,034.9,028.3,11.9,0000.0,0005.09,0002.75,0002.28
2023-10-13 18:37:00,SystemResetWarning,0832.6,5.00,000.00,026.6,025.5,000.0,034.9,028.4,11.8,0000.0,0005.08,0002.73,0002.29
2023-10-13 18:38:00,SystemResetWarning,0832.6,5.00,000.00,026.6,025.5,000.0,034.9,028.4,11.9,0000.0,0004.39,0002.67,0002.31
2023-10-13 18:39:00,SystemResetWarning,0832.6,5.00,000.00,026.6,025.5,000.0,035.0,028.4,12.1,0000.0,0004.00,0002.60,0002.32
2023-10-13 18:40:00,SystemResetWarning,0832.6,4.99,000.00,026.7,025.6,000.0,035.0,028.4,12.0,0000.0,0003.95,0002.62,0002.34
2023-10-13 18:41:00,SystemResetWarning,0832.5,4.99,000.00,026.7,025.6,000.0,035.0,028.4,11.5,0000.0,0004.01,0002.64,0002.35
2023-10-13 18:42:00,SystemResetWarning,0832.5,4.99,000.00,026.7,025.6,000.0,035.0,028.4,11.5,0000.0,0003.97,0002.62,0002.34
2023-10-13 18:43:00,SystemResetWarning,0832.5,4.99,000.00,026.7,025.7,000.0,035.0,028.5,11.5,0000.0,0003.96,0002.60,0002.31
2023-10-13 18:44:00,SystemResetWarning,0832.5,5.01,000.00,026.8,025.7,000.0,035.1,028.5,11.4,0000.0,0003.92,0002.60,0002.29
2023-10-13 18:45:00,SystemResetWarning,0832.5,5.00,000.00,026.8,025.7,000.0,035.1,028.5,11.5,0000.0,0003.91,0002.57,0002.26
2023-10-13 18:46:00,SystemResetWarning,0832.5,4.99,000.00,026.8,025.7,000.0,035.1,028.5,11.5,0000.0,0003.95,0002.51,0002.22
2023-10-13 18:47:00,SystemResetWarning,0832.5,4.99,000.00,026.8,025.7,000.0,035.1,028.5,11.4,0000.0,0003.94,0002.44,0002.16
2023-10-13 18:48:00,SystemResetWarning,0832.5,4.99,000.00,026.8,025.7,000.0,035.1,028.6,11.4,0000.0,0004.03,0002.45,0002.12
2023-10-13 18:49:00,SystemResetWarning,0832.5,4.99,000.00,026.8,025.8,000.0,035.2,028.6,11.5,0000.0,0003.94,0002.43,0002.10
2023-10-13 18:50:00,SystemResetWarning,0832.5,5.00,000.00,026.9,025.8,000.0,035.2,028.6,12.0,0000.0,0003.89,0002.41,0002.07
2023-10-13 18:51:00,SystemResetWarning,0832.5,5.01,000.00,026.9,025.8,000.0,035.2,028.6,12.0,0000.0,0003.82,0002.36,0002.02
2023-10-13 18:52:00,SystemResetWarning,0832.5,5.01,000.00,026.9,025.8,000.0,035.2,028.6,12.0,0000.0,0003.74,0002.32,0001.99
2023-10-13 18:53:00,SystemResetWarning,0832.6,5.01,000.00,026.9,025.8,000.0,035.2,028.6,11.8,0000.0,0003.74,0002.30,0001.97
2023-10-13 18:54:00,SystemResetWarning,0832.6,5.00,000.00,026.9,025.8,000.0,035.2,028.7,11.8,0000.0,0003.63,0002.22,0001.93
2023-10-13 18:55:00,SystemResetWarning,0832.6,5.00,000.00,027.0,025.9,000.0,035.3,028.7,11.8,0000.0,0003.84,0002.21,0001.90
2023-10-13 18:56:00,SystemResetWarning,0832.5,4.99,000.00,027.0,025.9,000.0,035.3,028.7,11.7,0000.0,0004.04,0002.18,0001.88
2023-10-13 18:57:00,SystemResetWarning,0832.5,4.99,000.00,027.0,025.9,000.0,035.3,028.7,11.8,0000.0,0004.30,0002.18,0001.87
2023-10-13 18:58:00,SystemResetWarning,0832.5,5.01,000.00,027.0,025.9,000.0,035.3,028.7,11.7,0000.0,0004.23,0002.21,0001.88
2023-10-13 18:59:00,SystemResetWarning,0832.5,5.01,000.00,027.0,025.9,000.0,035.3,028.7,11.7,0000.0,0003.81,0002.18,0001.88
